Flag for Congo Dem.Rep. Weather past 2 weeks in Kinshasa, Congo Dem.Rep.

Now
70 °F

Broken clouds.


Feels Like: 70 °F
Forecast: 68 / 87 °F
Wind: 3 mph from Northwest

Location: Brazzaville / Maya-Maya

Current Time: Aug 28, 2015 at 6:45:40 AM

Latest Report: Aug 28, 2015 at 6:00 AM


Visibility: N/A

Pressure: 29.98 "Hg

Humidity: 83%

Dew point: 64 °F

Location of KinshasaLocation

Historic Weather in Kinshasa — Graph

°F

Kinshasa temperature yesterday

Maximum temperature yesterday: 84 °F (at 2:00 PM)
Minimum temperature yesterday: 72 °F (at 2:00 AM)
Average temperature yesterday: 76 °F

Past Weeks' High & Low Weather Summary

 TemperatureHumidityPressure
High91 °F (Aug 20, 3:00 PM)94% (Aug 14, 6:00 AM)30.09 "Hg (Aug 14, 6:00 AM)
Low66 °F (Aug 14, 6:00 AM)46% (Aug 20, 3:00 PM)29.80 "Hg (Aug 20, 3:00 PM)
Average76 °F72%29.95 "Hg
* Reported Aug 13 5:00 AM — Aug 28 5:00 AM, Kinshasa, Weather by CustomWeather, © 2015

Note: Actual official high and low records may vary slightly from our data, if they occured in-between our weather recording intervals... More about our weather records

Advertising

Kinshasa weather history for previous 24 hours

 ConditionsComfort  
Time TempWeatherWind HumidityBarometerVisibility
5:00 AM
Fri, Aug 28
70 °FPassing clouds.5 mph88%29.95 "HgN/A
4:00 AM68 °FPassing clouds.3 mph88%29.95 "HgN/A
3:00 AM68 °FPassing clouds.3 mph94%29.92 "HgN/A
2:00 AM70 °FClear.5 mph88%29.95 "Hg5 mi
1:00 AM72 °FClear.5 mph83%29.95 "Hg5 mi
12:00 AM72 °FClear.3 mph83%29.95 "Hg5 mi
11:00 PM
Thu, Aug 27
73 °FClear.7 mph78%29.98 "Hg5 mi
10:00 PM75 °FClear.7 mph74%29.95 "Hg5 mi
9:00 PM75 °FClear.7 mph74%29.95 "Hg5 mi
8:00 PM77 °FClear.8 mph69%29.92 "Hg5 mi
7:00 PM79 °FClear.6 mph65%29.89 "Hg5 mi
6:00 PM81 °FPassing clouds.7 mph62%29.86 "Hg5 mi
5:00 PM82 °FPassing clouds.8 mph58%29.83 "Hg5 mi
4:00 PM84 °FPassing clouds.8 mph55%29.83 "Hg5 mi
3:00 PM84 °FPassing clouds.10 mph55%29.83 "Hg5 mi
2:00 PM84 °FPassing clouds.8 mph55%29.89 "Hg5 mi
1:00 PM82 °FPartly sunny.7 mph58%29.92 "Hg5 mi
12:00 PM79 °FScattered clouds.7 mph65%29.95 "Hg5 mi
11:00 AM79 °FBroken clouds.8 mph65%30.01 "Hg4 mi
10:00 AM77 °FBroken clouds.9 mph69%30.01 "Hg4 mi
9:00 AM73 °FBroken clouds.9 mph78%30.04 "Hg4 mi
8:00 AM73 °FMore clouds than sun.7 mph78%30.01 "Hg4 mi
7:00 AM72 °FMore clouds than sun.7 mph83%29.98 "Hg5 mi
6:00 AM72 °FMore clouds than sun.6 mph83%29.98 "Hg5 mi
Weather by CustomWeather, © 2015

See weather overviewHow to use our weather pages